• In India
  • List of Countries
  • For 7 days
  • Water Temperature
  • Satellite Maps
  • Weather Map
  • Weather Widgets
  • user-avatar
    Login

    Hourly Weather Rodakove

    Today, 19 October, Friday

    Time Temperature Precipitation Wind Pressure Humidity
    00:00 +13°C° 0 mm 3 mps 756 mmHg 57%
    01:00 +13°C° 0 mm 3 mps 755 mmHg 59%
    02:00 +13°C° 0 mm 3 mps 755 mmHg 61%
    03:00 +13°C° 0 mm 2 mps 755 mmHg 66%
    04:00 +12°C° 0 mm 2 mps 755 mmHg 68%
    05:00 +12°C° 0 mm 2 mps 755 mmHg 69%
    06:00 +11°C° 0 mm 3 mps 755 mmHg 71%
    07:00 +12°C° 0 mm 3 mps 755 mmHg 67%
    08:00 +13°C° 0 mm 3 mps 755 mmHg 64%
    09:00 +14°C° 0 mm 4 mps 755 mmHg 60%
    10:00 +17°C° 0 mm 4 mps 754 mmHg 54%
    11:00 +19°C° 0 mm 4 mps 754 mmHg 49%
    12:00 +21°C° 0 mm 4 mps 754 mmHg 43%
    13:00 +21°C° 0 mm 4 mps 754 mmHg 41%
    14:00 +22°C° 0 mm 4 mps 753 mmHg 39%
    15:00 +22°C° 0 mm 5 mps 753 mmHg 37%
    16:00 +21°C° 0 mm 4 mps 753 mmHg 42%
    17:00 +19°C° 0 mm 4 mps 752 mmHg 46%
    18:00 +18°C° 0 mm 3 mps 752 mmHg 51%
    19:00 +17°C° 0 mm 3 mps 752 mmHg 54%
    20:00 +16°C° 0 mm 3 mps 752 mmHg 58%
    21:00 +16°C° 0 mm 3 mps 752 mmHg 61%
    22:00 +14°C° 0 mm 3 mps 752 mmHg 65%
    23:00 +14°C° 0 mm 3 mps 751 mmHg 69%

    Tomorrow, 20 October, Saturday

    Time Temperature Precipitation Wind Pressure Humidity
    00:00 +14°C° 0 mm 2 mps 751 mmHg 72%
    01:00 +14°C° 0 mm 2 mps 751 mmHg 76%
    02:00 +13°C° 0 mm 2 mps 751 mmHg 80%
    03:00 +13°C° 0 mm 2 mps 751 mmHg 84%
    04:00 +13°C° 0 mm 2 mps 751 mmHg 85%
    05:00 +12°C° 0 mm 2 mps 751 mmHg 87%
    06:00 +12°C° 0 mm 2 mps 750 mmHg 89%
    07:00 +13°C° 0 mm 2 mps 750 mmHg 85%
    08:00 +14°C° 0 mm 2 mps 751 mmHg 81%
    09:00 +15°C° 0 mm 2 mps 751 mmHg 77%
    10:00 +17°C° 0 mm 2 mps 751 mmHg 69%
    11:00 +18°C° 0 mm 2 mps 751 mmHg 61%
    12:00 +20°C° 0 mm 2 mps 750 mmHg 54%
    13:00 +20°C° 0 mm 2 mps 750 mmHg 50%
    14:00 +21°C° 0 mm 2 mps 750 mmHg 47%
    15:00 +23°C° 0 mm 1 mps 750 mmHg 43%
    16:00 +22°C° 0 mm 1 mps 750 mmHg 47%
    17:00 +20°C° 0 mm 1 mps 750 mmHg 51%
    18:00 +19°C° 0 mm 1 mps 750 mmHg 54%
    19:00 +19°C° 0 mm 1 mps 750 mmHg 57%
    20:00 +18°C° 0 mm 1 mps 750 mmHg 60%
    21:00 +16°C° 0 mm 1 mps 750 mmHg 62%
    22:00 +16°C° 0 mm 1 mps 750 mmHg 64%
    23:00 +16°C° 0 mm 1 mps 749 mmHg 66%

    Day after tomorrow, 21 October, Sunday

    Time Temperature Precipitation Wind Pressure Humidity
    00:00 +15°C° 0 mm 1 mps 749 mmHg 68%
    01:00 +15°C° 0 mm 1 mps 749 mmHg 69%
    02:00 +15°C° 0 mm 1 mps 749 mmHg 70%
    03:00 +15°C° 0 mm 1 mps 749 mmHg 71%
    04:00 +14°C° 0 mm 1 mps 749 mmHg 73%
    05:00 +14°C° 0 mm 1 mps 749 mmHg 76%
    06:00 +13°C° 0 mm 1 mps 749 mmHg 78%
    07:00 +14°C° 0 mm 1 mps 749 mmHg 74%
    08:00 +15°C° 0 mm 1 mps 749 mmHg 70%
    09:00 +16°C° 0 mm 1 mps 749 mmHg 66%
    10:00 +18°C° 0 mm 1 mps 749 mmHg 61%
    11:00 +20°C° 0 mm 1 mps 749 mmHg 55%
    12:00 +21°C° 0 mm 1 mps 749 mmHg 50%
    13:00 +22°C° 0 mm 1 mps 749 mmHg 48%
    14:00 +22°C° 0 mm 1 mps 749 mmHg 46%
    15:00 +23°C° 0 mm 1 mps 749 mmHg 44%
    16:00 +21°C° 0.1 mm 1 mps 750 mmHg 48%
    17:00 +20°C° 0.1 mm 1 mps 750 mmHg 52%
    18:00 +19°C° 0.1 mm 1 mps 750 mmHg 57%
    19:00 +19°C° 0.8 mm 1 mps 750 mmHg 62%
    20:00 +18°C° 0.8 mm 1 mps 750 mmHg 68%
    21:00 +17°C° 0.8 mm 2 mps 750 mmHg 74%
    22:00 +16°C° 0.8 mm 2 mps 750 mmHg 76%
    23:00 +16°C° 0.8 mm 2 mps 751 mmHg 79%

    22 October, Monday

    Time Temperature Precipitation Wind Pressure Humidity
    00:00 +16°C° 0.8 mm 2 mps 751 mmHg 81%
    01:00 +16°C° 0.4 mm 2 mps 751 mmHg 82%
    02:00 +16°C° 0.4 mm 2 mps 751 mmHg 84%
    03:00 +14°C° 0.4 mm 3 mps 751 mmHg 85%
    04:00 +15°C° 0.2 mm 2 mps 751 mmHg 86%
    05:00 +15°C° 0.2 mm 2 mps 750 mmHg 87%
    06:00 +15°C° 0.2 mm 2 mps 750 mmHg 88%
    07:00 +14°C° 0.1 mm 3 mps 750 mmHg 88%
    08:00 +16°C° 0.1 mm 3 mps 751 mmHg 88%
    09:00 +16°C° 0.1 mm 3 mps 751 mmHg 88%
    10:00 +16°C° 0.7 mm 3 mps 751 mmHg 87%
    11:00 +16°C° 0.7 mm 3 mps 751 mmHg 87%
    12:00 +16°C° 0.7 mm 2 mps 751 mmHg 86%
    13:00 +16°C° 1.7 mm 2 mps 751 mmHg 86%
    14:00 +17°C° 1.7 mm 2 mps 750 mmHg 85%
    15:00 +17°C° 1.7 mm 2 mps 750 mmHg 85%
    16:00 +16°C° 1.3 mm 2 mps 750 mmHg 85%
    17:00 +16°C° 1.3 mm 2 mps 750 mmHg 85%
    18:00 +16°C° 1.3 mm 2 mps 750 mmHg 85%
    19:00 +16°C° 0.7 mm 3 mps 750 mmHg 85%
    20:00 +15°C° 0.7 mm 4 mps 750 mmHg 85%
    21:00 +15°C° 0.7 mm 4 mps 750 mmHg 86%
    22:00 +14°C° 0.4 mm 4 mps 750 mmHg 84%
    23:00 +14°C° 0.4 mm 4 mps 750 mmHg 83%

    23 October, Tuesday

    Time Temperature Precipitation Wind Pressure Humidity
    00:00 +14°C° 0.4 mm 4 mps 749 mmHg 82%
    01:00 +14°C° 0.2 mm 4 mps 749 mmHg 82%
    02:00 +13°C° 0.2 mm 3 mps 749 mmHg 82%
    03:00 +13°C° 0.2 mm 3 mps 749 mmHg 83%
    04:00 +13°C° 0.1 mm 3 mps 749 mmHg 85%
    05:00 +13°C° 0.1 mm 3 mps 749 mmHg 87%
    06:00 +14°C° 0.1 mm 2 mps 748 mmHg 89%
    07:00 +15°C° 0 mm 2 mps 749 mmHg 89%
    08:00 +15°C° 0 mm 2 mps 749 mmHg 88%
    09:00 +15°C° 0 mm 2 mps 749 mmHg 88%
    10:00 +16°C° 0.1 mm 2 mps 749 mmHg 84%
    11:00 +17°C° 0.1 mm 2 mps 749 mmHg 80%
    12:00 +17°C° 0.1 mm 3 mps 749 mmHg 75%
    13:00 +18°C° 0.1 mm 3 mps 748 mmHg 73%
    14:00 +18°C° 0.1 mm 2 mps 748 mmHg 71%
    15:00 +18°C° 0.1 mm 2 mps 748 mmHg 68%
    16:00 +17°C° 0.1 mm 2 mps 748 mmHg 72%
    17:00 +17°C° 0.1 mm 2 mps 748 mmHg 75%
    18:00 +16°C° 0.1 mm 1 mps 748 mmHg 78%
    19:00 +16°C° 0.1 mm 1 mps 748 mmHg 79%
    20:00 +15°C° 0.1 mm 1 mps 748 mmHg 80%
    21:00 +15°C° 0.1 mm 1 mps 748 mmHg 80%
    22:00 +15°C° 0 mm 1 mps 748 mmHg 81%
    23:00 +15°C° 0 mm 1 mps 747 mmHg 82%

    24 October, Wednesday

    Time Temperature Precipitation Wind Pressure Humidity
    00:00 +14°C° 0 mm 1 mps 747 mmHg 82%
    01:00 +14°C° 0 mm 1 mps 747 mmHg 83%
    02:00 +14°C° 0 mm 1 mps 747 mmHg 83%
    03:00 +14°C° 0 mm 1 mps 746 mmHg 83%
    04:00 +13°C° 0 mm 1 mps 746 mmHg 84%
    05:00 +13°C° 0 mm 1 mps 746 mmHg 84%
    06:00 +13°C° 0 mm 1 mps 746 mmHg 85%
    07:00 +13°C° 0 mm 1 mps 746 mmHg 82%
    08:00 +14°C° 0 mm 1 mps 745 mmHg 80%
    09:00 +14°C° 0 mm 1 mps 745 mmHg 78%
    10:00 +15°C° 0.2 mm 1 mps 745 mmHg 76%
    11:00 +15°C° 0.2 mm 1 mps 744 mmHg 75%
    12:00 +15°C° 0.2 mm 1 mps 744 mmHg 74%
    13:00 +15°C° 0.5 mm 1 mps 743 mmHg 76%
    14:00 +15°C° 0.5 mm 1 mps 742 mmHg 77%
    15:00 +15°C° 0.5 mm 1 mps 742 mmHg 79%
    16:00 +15°C° 0.5 mm 1 mps 741 mmHg 80%
    17:00 +15°C° 0.5 mm 1 mps 741 mmHg 82%
    18:00 +14°C° 0.5 mm 1 mps 741 mmHg 84%
    19:00 +14°C° 0 mm 1 mps 740 mmHg 84%
    20:00 +13°C° 0 mm 2 mps 740 mmHg 84%
    21:00 +13°C° 0 mm 2 mps 740 mmHg 84%
    22:00 +13°C° 0 mm 2 mps 740 mmHg 84%
    23:00 +11°C° 0 mm 3 mps 740 mmHg 83%
    Show more